AO-07 1 07530U 74089B 23341.52477310 -.00000023 00000-0 14755-3 0 9996 2 07530 101.9654 329.4800 0012453 91.8353 27.5685 12.53669941244899 UO-11 1 14781U 84021B 23341.46660149 .00001778 00000-0 21070-3 0 9991 2 14781 97.6807 311.9820 0008254 4.1681 355.9602 14.85718939119863 AO-16 1 20439U 90005D 23341.53353623 .00000214 00000-0 94818-4 0 9996 2 20439 98.8954 336.3345 0011686 59.2461 57.2108 14.33229124769735 LO-19 1 20442U 90005G 23341.50381703 .00000227 00000-0 98978-4 0 9992 2 20442 98.8653 321.9178 0012452 35.0431 325.1570 14.33385431770174 AO-27 1 22825U 93061C 23341.13126541 .00000146 00000-0 73805-4 0 9992 2 22825 98.8191 26.6180 0007377 284.9074 75.1291 14.30392120575016 IO-26 1 22826U 93061D 23341.09055092 .00000170 00000-0 82255-4 0 9996 2 22826 98.8137 26.4384 0007918 268.5497 91.4778 14.30762667575286 FO-29 1 24278U 96046B 23341.43276031 .00000038 00000-0 76979-4 0 9990 2 24278 98.5566 296.5725 0349730 327.8081 30.2128 13.53165943348365 NOAA-15 1 25338U 98030A 23341.77056777 .00000180 00000-0 92677-4 0 9994 2 25338 98.5899 7.7334 0010692 161.5843 198.5726 14.26449541330005 GO-32 1 25397U 98043D 23341.50280056 .00000118 00000-0 71454-4 0 9994 2 25397 98.8949 300.6611 0001652 36.6594 323.4697 14.23953613319991 ISS 1 25544U 98067A 23341.71359090 .00016326 00000-0 29070-3 0 9996 2 25544 51.6410 189.0391 0001311 38.7042 46.7045 15.50268233428702 NO-44 1 26931U 01043C 23341.81415516 .00000230 00000-0 11849-3 0 9994 2 26931 67.0507 108.4612 0005661 259.0557 100.9908 14.31063141158589 SO-50 1 27607U 02058C 23341.56087859 .00001694 00000-0 24896-3 0 9990 2 27607 64.5554 93.1527 0048591 185.4563 174.6018 14.78035335127847 CO-55 1 27844U 03031E 23341.44729455 .00000425 00000-0 20808-3 0 9997 2 27844 98.6789 346.2009 0009521 350.2156 9.8835 14.22991271 60374 CO-57 1 27848U 03031J 23341.44924560 .00000348 00000-0 17584-3 0 9996 2 27848 98.6823 346.5463 0009742 5.8572 354.2718 14.22472303 60135 RS-22 1 27939U 03042A 23341.79889617 .00001296 00000-0 22933-3 0 9997 2 27939 98.2650 130.4005 0011410 311.8789 178.3069 14.69065543 80026 NOAA-18 1 28654U 05018A 23341.76417087 .00000215 00000-0 13904-3 0 9990 2 28654 98.8954 55.1914 0013434 246.6000 113.3759 14.13073275956088 CO-58 1 28895U 05043F 23340.81637405 .00001864 00000-0 34467-3 0 9996 2 28895 98.1755 111.8953 0015080 246.4099 113.5521 14.66521322966107 CO-65 1 32785U 08021C 23341.50128636 .00003498 00000-0 33202-3 0 9997 2 32785 97.7296 304.1660 0009967 244.7918 115.2269 14.94134583846683 AAUSAT2 1 32788U 08021F 23341.42620383 .00010505 00000-0 66905-3 0 9990 2 32788 97.5786 317.7126 0008823 111.2937 248.9234 15.08911779849184 CO-66 1 32791U 08021J 23341.41387823 .00005376 00000-0 44093-3 0 9996 2 32791 97.6819 309.5395 0009490 174.2783 185.8550 14.99619804847598 RS-30 1 32953U 08025A 23341.80290341 .00000017 00000-0 51547-4 0 9991 2 32953 82.5037 209.1130 0019207 163.4605 196.7105 12.43132982705229 PRISM 1 33493U 09002B 23341.03640909 .00011990 00000-0 71521-3 0 9996 2 33493 98.2334 8.1569 0014232 179.9999 180.1231 15.11240799809807 NOAA-19 1 33591U 09005A 23341.76013995 .00000186 00000-0 12447-3 0 9994 2 33591 99.0775 30.2734 0014743 113.5535 246.7187 14.12881962764454 SRMSAT 1 37841U 11058D 23341.07626971 .00000473 00000-0 11446-3 0 9992 2 37841 19.9713 244.6524 0011991 131.8707 356.5464 14.10997206627254 HRBE 1 37855U 11061F 23341.13995665 .00038555 00000-0 85457-3 0 9992 2 37855 101.6967 42.2974 0093074 226.4547 132.8926 15.39131472663047 RS-40 1 38735U 12041C 23341.82654958 .00000019 00000-0 69583-4 0 9999 2 38735 82.4749 289.8107 0016332 280.3205 79.6033 12.42598458515379 ZACUBE-1 1 39417U 13066B 23341.85336763 .00003197 00000-0 35577-3 0 9994 2 39417 97.7097 297.8355 0054995 76.0061 284.7262 14.86711982542982 Delfi-N3xt 1 39428U 13066N 23341.32294593 .00005931 00000-0 81260-3 0 9990 2 39428 97.8368 260.2592 0106841 353.2587 6.7178 14.74910390537639 GOMX-1 1 39430U 13066Q 23341.78867209 .00001630 00000-0 28316-3 0 9998 2 39430 97.7565 222.6879 0143751 143.1350 217.9841 14.62853434534907 LO-74 1 39440U 13066AA 23341.43310830 .00002400 00000-0 30222-3 0 9999 2 39440 97.7929 284.8698 0072613 181.8472 178.2484 14.81087013539789 AO-73 1 39444U 13066AE 23341.46107084 .00004133 00000-0 43535-3 0 9997 2 39444 97.6957 300.1983 0052873 61.3498 299.3022 14.88858237541404 SPROUT 1 39770U 14029E 23341.33439390 .00026586 00000-0 14755-2 0 9990 2 39770 98.0011 115.1851 0004215 89.6956 270.4757 15.13717152518238 DTUSAT-2 1 40030U 14033W 23341.81200297 .00004278 00000-0 39356-3 0 9990 2 40030 97.9867 284.9616 0012495 76.5895 283.6717 14.95256636514430 EO-80 1 40032U 14033Y 23341.38462787 .00004341 00000-0 39916-3 0 9991 2 40032 97.9848 284.5415 0012135 79.3142 280.9444 14.95273980513832 HODOYOSHI-1 1 40299U 14070B 23341.78282444 .00011965 00000-0 31060-3 0 9993 2 40299 97.1721 40.2804 0009782 23.5481 336.6211 15.39071938505457 GRIFEX 1 40379U 15003D 23341.52734237 .00106147 00000-0 96976-3 0 9997 2 40379 99.0848 323.2027 0049444 29.3850 331.0168 15.65887122490240 XW-2C 1 40906U 15049H 23341.77984412 .00013272 00000-0 42780-3 0 9992 2 40906 97.4911 350.1371 0008049 270.7530 89.2790 15.32273837454927 XW-2D 1 40907U 15049J 23341.77189132 .00017104 00000-0 49481-3 0 9992 2 40907 97.4879 351.2806 0006725 258.5878 101.4610 15.35659377455057 LILACSAT-2 1 40908U 15049K 23341.77931600 .00005715 00000-0 24977-3 0 9996 2 40908 97.5277 344.6893 0011758 310.8717 49.1500 15.22441441454185 XW-2E 1 40909U 15049L 23341.81310987 .00057035 00000-0 79335-3 0 9991 2 40909 97.4379 0.3278 0004627 181.7932 178.3307 15.56787527455964 XW-2F 1 40910U 15049M 23341.76940575 .00056422 00000-0 81599-3 0 9993 2 40910 97.4478 359.5398 0005026 188.5168 171.6002 15.55730713455689 XW-2B 1 40911U 15049N 23341.79908959 .00016509 00000-0 48315-3 0 9998 2 40911 97.4855 351.6204 0006774 260.7928 99.2549 15.35304204454934 DCBB 1 40912U 15049P 23341.80185869 .00155810 00000-0 10688-2 0 9998 2 40912 97.3929 5.6451 0005847 131.5360 228.6406 15.74233446456586 IO-86 1 40931U 15052B 23341.45323039 .00001182 00000-0 73355-4 0 9991 2 40931 6.0002 289.4753 0013385 231.0518 128.8417 14.77511857442901 ChubuSat-2 1 41338U 16012B 23341.79981934 .00003570 00000-0 23413-3 0 9993 2 41338 31.0005 186.4960 0011669 108.7774 251.4129 15.05786252428550 ChubuSat-3 1 41339U 16012C 23341.81967084 .00003287 00000-0 21698-3 0 9995 2 41339 31.0068 183.9315 0011607 115.6380 244.5457 15.05474267428544 Horyu-4 1 41340U 16012D 23341.58395347 .00007746 00000-0 44293-3 0 9998 2 41340 31.0016 145.4915 0010241 181.7282 178.3322 15.11270006428947 e-st@r-II 1 41459U 16025D 23341.69122137 .00045159 00000-0 81991-3 0 9996 2 41459 98.1590 202.2464 0074851 208.0977 151.6222 15.46315133419549 Lapan A3 1 41603U 16040E 23341.77719082 .00002382 00000-0 10205-3 0 9995 2 41603 97.1546 359.3269 0014108 66.6375 293.6345 15.23614520413911 Pratham 1 41783U 16059A 23341.53966200 .00000802 00000-0 15950-3 0 9991 2 41783 97.8532 4.8387 0031397 271.7215 88.0392 14.64353209384346 CAS-2T 1 41847U 16066G 23341.59999781 .00001024 00000-0 15909-3 0 9997 2 41847 98.4864 49.2281 0357821 36.9368 325.5894 14.40426414371762 CAS-4B 1 42759U 17034B 23341.82529870 .00008661 00000-0 38677-3 0 9991 2 42759 43.0137 227.7408 0010760 161.6326 198.4914 15.21562445358047 CAS-4A 1 42761U 17034D 23341.83906469 .00007657 00000-0 34263-3 0 9999 2 42761 43.0136 226.1525 0011314 163.3777 196.7446 15.21615359358052 NIUSat 1 42766U 17036B 23341.51910509 .00047211 00000-0 71182-3 0 9992 2 42766 97.1342 10.2501 0006185 168.0863 192.0538 15.54622590359389 Aalto 1 1 42775U 17036L 23341.55158442 .00023187 00000-0 49495-3 0 9994 2 42775 97.1336 7.3953 0007370 180.6064 179.5177 15.44845694359199 URSA MAIOR 1 42776U 17036M 23341.30911762 .00030535 00000-0 56670-3 0 9998 2 42776 97.1343 9.2054 0006735 174.8794 185.2528 15.48870440359274 Max Valier Sat 1 42778U 17036P 23341.54308237 .00028975 00000-0 50680-3 0 9993 2 42778 97.1333 13.3056 0006052 172.0022 188.1328 15.50575443359479 Pegasus 1 42784U 17036V 23341.08667818 .00236203 00000-0 11458-2 0 9996 2 42784 97.1156 19.0693 0003287 141.2439 218.9066 15.81837342359919 VENTA 1 1 42791U 17036AC 23341.11549922 .00242726 00000-0 10941-2 0 9996 2 42791 97.1138 20.4079 0002921 144.8307 215.3157 15.83404045359989 D-SAT 1 42794U 17036AF 23341.50501153 .00003973 00000-0 30137-3 0 9995 2 42794 97.4790 325.8569 0114558 78.3812 283.0242 14.97637343351855 TechnoSat 1 42829U 17042E 23341.50548468 .00001777 00000-0 16788-3 0 9997 2 42829 97.3792 168.6624 0013363 9.1641 350.9822 14.94832841348372 AO-91 1 43017U 17073E 23341.60292872 .00006537 00000-0 43673-3 0 9999 2 43017 97.6029 219.1706 0222232 214.9103 143.7372 14.89299911326965 AO-92 1 43137U 18004AC 23341.23635896 .00113829 00000-0 83854-3 0 9991 2 43137 97.3080 64.5835 0003435 231.8062 128.2893 15.72694085329201 TianYi 2 1 43155U 18008A 23341.79661087 .00022729 00000-0 66182-3 0 9990 2 43155 97.2740 30.9304 0011502 55.9758 304.2576 15.35348072325191 Zhou Enlai 1 43156U 18008B 23341.81484126 .00028499 00000-0 77948-3 0 9993 2 43156 97.2787 31.4541 0009321 57.1497 303.0643 15.37282393325144 TianYi 6 1 43158U 18008D 23341.07405098 .00021189 00000-0 70947-3 0 9995 2 43158 97.2835 26.5837 0010399 65.0157 295.2164 15.30917198324792 S-Net D 1 43186U 18014G 23341.28673349 .00004298 00000-0 33095-3 0 9997 2 43186 97.6013 241.6955 0011154 306.0906 53.9286 15.02134613319527 S-Net B 1 43187U 18014H 23341.42148514 .00004083 00000-0 31465-3 0 9996 2 43187 97.6016 241.7627 0011833 301.2999 58.7067 15.02129028319547 S-Net A 1 43188U 18014J 23341.42125087 .00004162 00000-0 32056-3 0 9992 2 43188 97.6020 241.8610 0011743 301.8757 58.1324 15.02135572319545 S-Net C 1 43189U 18014K 23341.42392412 .00003890 00000-0 29987-3 0 9997 2 43189 97.6031 241.7728 0013201 294.6574 65.3276 15.02131255318093 CubeBel-1 1 43666U 18083E 23341.79525055 .00071857 00000-0 92140-3 0 9993 2 43666 97.3568 16.2558 0005114 187.1813 172.9371 15.58908390284026 Changshagaoxin 1 43669U 18083H 23341.80399596 .00041403 00000-0 76378-3 0 9996 2 43669 97.3602 9.4499 0004047 190.0384 170.0787 15.48999461283674 Ten-Koh 1 43677U 18084G 23341.39468017 .00002144 00000-0 20502-3 0 9992 2 43677 98.0355 124.8781 0013738 297.9088 62.0739 14.94286394277918 PO-101 1 43678U 18084H 23341.74745499 .00001577 00000-0 15270-3 0 9999 2 43678 98.0456 129.5840 0008418 313.1569 46.8945 14.94224068278171 QO-100 1 43700U 18090A 23341.77559490 .00000171 00000-0 00000+0 0 9999 2 43700 0.0172 359.1870 0001912 296.4702 85.6568 1.00273691 18671 MinXSS-2 1 43758U 18099A 23341.49520803 .00005797 00000-0 41605-3 0 9995 2 43758 97.5844 42.2164 0016700 254.2037 105.7348 15.04593669273774 AO-95 1 43770U 18099N 23341.15659123 .00005188 00000-0 39595-3 0 9999 2 43770 97.5784 38.3504 0012220 301.9881 58.0156 15.02367992273554 RANGE-B 1 43772U 18099Q 23341.39202250 .00007679 00000-0 54686-3 0 9997 2 43772 97.5535 41.6593 0005419 203.6769 156.4209 15.04875585273680 RANGE-A 1 43773U 18099R 23341.13269077 .00002970 00000-0 24222-3 0 9992 2 43773 97.5433 35.5215 0013261 260.9576 99.0147 15.00140719273477 MOVE-II 1 43780U 18099Y 23341.14453295 .00010552 00000-0 68043-3 0 9992 2 43780 97.5507 41.8192 0006827 285.2025 74.8448 15.08465792273766 SNUSat 2 1 43782U 18099AA 23341.15282057 .00003777 00000-0 29307-3 0 9992 2 43782 97.5478 38.4882 0013945 226.8025 133.2036 15.01878749273578 SnugLite 1 43784U 18099AC 23341.09571656 .00005449 00000-0 41296-3 0 9992 2 43784 97.5282 37.9399 0003527 230.7549 129.3363 15.02658759273612 ITASat 1 1 43786U 18099AE 23341.15757863 .00004321 00000-0 33795-3 0 9990 2 43786 97.5465 38.9881 0016603 278.6630 81.2714 15.01472963273587 EAGLET 1 1 43790U 18099AJ 23341.60026181 .00002909 00000-0 23375-3 0 9990 2 43790 97.5626 39.8174 0015913 265.5890 94.3516 15.00705603273373 ESEO 1 43792U 18099AL 23341.16129461 .00001898 00000-0 16331-3 0 9998 2 43792 97.5468 37.2446 0011459 260.2314 99.7615 14.98497336273283 CSIM 1 43793U 18099AM 23341.13402026 .00011052 00000-0 70775-3 0 9992 2 43793 97.5575 43.3465 0013490 255.6717 104.3013 15.08652528273614 JO-97 1 43803U 18099AX 23341.45611125 .00005859 00000-0 43350-3 0 9998 2 43803 97.5498 39.7092 0010134 238.6092 121.4143 15.03502363273704 Suomi 100 1 43804U 18099AY 23341.49738670 .00005011 00000-0 37542-3 0 9994 2 43804 97.5596 39.5469 0015603 233.7431 126.2353 15.03046383273700 CHOMPTT 1 43855U 18104G 23341.24464449 .00040385 00000-0 60590-3 0 9992 2 43855 85.0247 47.3139 0008088 32.1966 327.9786 15.54704729277317 ISAT 1 43879U 18111D 23341.29863498 .00006312 00000-0 44085-3 0 9991 2 43879 97.6296 243.5303 0012759 301.2320 58.7655 15.05625929270354 UWE-4 1 43880U 18111E 23341.26398761 .00006144 00000-0 43412-3 0 9992 2 43880 97.6245 243.9261 0016227 311.7150 48.2687 15.05161813270376 Sparrow 1 43881U 18111F 23341.26174167 .00006550 00000-0 45253-3 0 9991 2 43881 97.6391 245.0698 0010568 351.5147 8.5899 15.06039301270401 Lume 1 1 43908U 18111AJ 23341.21834702 .00101536 00000-0 82155-3 0 9996 2 43908 97.1038 223.8059 0003725 300.5164 59.5731 15.70488406276287 AISTechSat 3 1 44103U 19018AB 23341.77598761 .00049100 00000-0 67680-3 0 9998 2 44103 97.2257 40.3744 0005839 8.1740 351.9610 15.57059464261351 AISat 1 1 44104U 19018AC 23341.55464469 .00031741 00000-0 41017-3 0 9990 2 44104 97.3707 77.2738 0030170 342.9618 17.0622 15.58334189262607 Prox-1 1 44339U 19036A 23341.47921951 .00005828 00000-0 10846-2 0 9997 2 44339 24.0023 20.5265 0009598 24.3950 335.6997 14.62428069236960 SONATE 1 44400U 19038Q 23341.50408800 .00010422 00000-0 40388-3 0 9996 2 44400 97.7017 323.4641 0020996 68.2432 292.1037 15.26143198244621 BeeSat 9 1 44412U 19038AC 23341.49722254 .00033751 00000-0 75470-3 0 9999 2 44412 97.6844 329.4396 0014894 54.2579 306.0051 15.43309823244754 JAISAT-1 1 44419U 19038F 23341.55296687 .00035844 00000-0 80067-3 0 9992 2 44419 97.6840 330.6182 0014290 51.7092 308.5438 15.43337143245142 Taurus 1 1 44530U 19059C 23341.78051662 .00003593 00000-0 89635-3 0 9992 2 44530 98.5640 92.5918 0012016 279.8822 80.1016 14.52194262223810 Duchifat 3 1 44854U 19089C 23341.81979890 .00008543 00000-0 51685-3 0 9994 2 44854 36.9589 130.8016 0008373 314.4660 45.5400 15.10178384219054 OPS-SAT 1 44878U 19092F 23341.52881970 .00035525 00000-0 71084-3 0 9998 2 44878 97.4614 173.7841 0006394 228.5449 131.5252 15.46670162220462 TO-108 1 44881U 19093C 23341.79449320 .00001035 00000-0 13349-3 0 9990 2 44881 97.8489 57.2155 0013545 228.1422 131.8637 14.83057539214524 FloripaSat 1 1 44885U 19093G 23341.80120883 .00003124 00000-0 34895-3 0 9996 2 44885 97.8579 61.1320 0012386 226.3299 133.6891 14.87644826214741 RS-44 1 44909U 19096E 23341.23885691 .00000018 00000-0 20333-4 0 9990 2 44909 82.5224 232.9474 0218013 142.1366 219.5299 12.79724291184295 BY70-2 1 45857U 20042B 23341.78989246 .00024570 00000-0 19248-2 0 9997 2 45857 97.9205 63.3219 0006689 146.5484 213.6163 15.00968734185478 UPMSat 2 1 46276U 20061E 23341.54737637 .00008714 00000-0 32604-3 0 9997 2 46276 97.3267 45.7462 0002634 86.0478 274.1062 15.27547249180712 AmicalSat 1 46287U 20061R 23341.17145442 .00014989 00000-0 58221-3 0 9999 2 46287 97.3796 44.8687 0002209 154.8525 205.2821 15.26164329180031 SALSAT 1 46495U 20068K 23341.42354488 .00004947 00000-0 30826-3 0 9991 2 46495 97.7913 291.6995 0013024 249.2548 110.7285 15.09970265175192 CAPE 3 1 47309U 21002A 23341.77658891 .00094056 00000-0 93298-3 0 9990 2 47309 60.6673 101.4093 0024030 38.3569 321.9241 15.64846276161193 AO-109 1 47311U 21002C 23341.53481206 .00047212 00000-0 70040-3 0 9993 2 47311 60.6744 105.8282 0024486 39.6641 320.6246 15.54560661161071 ExoCube 2 1 47319U 21002L 23341.52408442 .00045612 00000-0 71577-3 0 9999 2 47319 60.6719 109.0622 0025303 39.5016 320.7923 15.53008023160989 UVSQ-SAT 1 47438U 21006AB 23341.15375396 .00020324 00000-0 65793-3 0 9991 2 47438 97.3612 36.3542 0008054 180.1326 179.9915 15.32036400159052 YUSAT 1 1 47439U 21006AC 23341.15968810 .00030202 00000-0 82037-3 0 9997 2 47439 97.3613 38.0808 0007231 174.0486 186.0846 15.37502888159160 SOMP 2b 1 47445U 21006AJ 23341.11328504 .00019273 00000-0 64768-3 0 9996 2 47445 97.3573 35.2520 0007973 185.7756 174.3395 15.30842054159001 IDEASSat 1 47458U 21006AX 23341.12485674 .00017632 00000-0 61491-3 0 9990 2 47458 97.3675 36.0478 0007447 185.2543 174.8621 15.29661066158976 CubeSX-Sirius-HSE 1 47951U 21022V 23341.80341811 .00009965 00000-0 49041-3 0 9992 2 47951 97.4787 236.6189 0018981 91.0781 269.2628 15.18034074149325 CubeSX-HSE 1 47952U 21022W 23341.83446995 .00008811 00000-0 43306-3 0 9992 2 47952 97.4789 236.7140 0019031 90.4629 269.8786 15.18116402149335 KSU-Cubesat 1 47954U 21022Y 23341.16616207 .00013147 00000-0 61761-3 0 9998 2 47954 97.4794 236.7359 0018326 89.8315 270.5019 15.19589866148993 GRBAlpha 1 47959U 21022AD 23341.81123378 .00009578 00000-0 46924-3 0 9994 2 47959 97.4789 236.8044 0018742 90.7250 269.6132 15.18208348148150 Orbicraft-Zorkiy 1 47960U 21022AE 23341.80015654 .00011749 00000-0 55586-3 0 9999 2 47960 97.4828 237.5264 0018295 88.9556 271.3774 15.19373078148874 STECCO 1 47962U 21022AG 23341.82089098 .00025924 00000-0 88008-3 0 9991 2 47962 97.4799 241.9491 0013145 70.9275 289.3388 15.30401455148494 MO-110 1 47964U 21022AJ 23341.22678093 .00027175 00000-0 88137-3 0 9999 2 47964 97.4814 242.2645 0014708 68.0351 292.2452 15.31843836148453 FEES 1 48082U 21022AL 23341.20920985 .00107665 00000-0 16688-2 0 9993 2 48082 97.4756 246.4476 0010671 63.0129 297.2212 15.53578633148432 TUBIN 1 48900U 21059X 23341.80783525 .00008835 00000-0 37169-3 0 9992 2 48900 97.6207 117.2482 0008829 43.6644 316.5289 15.23599791135579 IT-SPINS 1 49017U 21013G 23341.18603664 .00090353 00000-0 90969-3 0 9991 2 49017 51.5841 299.7422 0002238 115.8130 244.3096 15.64653721136554 LEDSAT 1 49069U 21073D 23341.65239202 .00008282 00000-0 40511-3 0 9997 2 49069 97.4646 49.8519 0020839 236.4947 123.4296 15.18274120127186 CUTE 1 49263U 21088D 23341.18651637 .00009937 00000-0 56529-3 0 9991 2 49263 97.5252 44.2684 0016891 33.4459 326.7835 15.12939818120405 TeikyoSat 4 1 49396U 21102B 23341.13489462 .00002009 00000-0 15285-3 0 9992 2 49396 97.4920 27.6410 0012927 205.5296 154.5293 15.03159397113742 Z-Sat 1 49399U 21102E 23341.75593933 .00003769 00000-0 25905-3 0 9996 2 49399 97.4622 29.4612 0020895 193.6443 166.4222 15.06357535114003 KOSEN 1 1 49402U 21102H 23341.13740418 .00004632 00000-0 29858-3 0 9996 2 49402 97.4556 29.7263 0019874 181.1742 178.9443 15.08633789114012 HO-113 1 50466U 21131B 23341.78586261 .00000591 00000-0 20504-3 0 9994 2 50466 98.5428 62.7316 0003861 356.5697 3.5463 14.39231988102320 Tevel-3 1 50988U 22002E 23341.68224083 .00025352 00000-0 73143-3 0 9990 2 50988 97.4123 48.3723 0005683 348.8934 11.2183 15.35666862105286 Tevel-8 1 50989U 22002F 23341.77461688 .00025122 00000-0 72673-3 0 9997 2 50989 97.4141 48.5427 0005577 346.9215 13.1883 15.35586229105290 Tevel-5 1 50998U 22002Q 23341.76973352 .00026293 00000-0 72479-3 0 9996 2 50998 97.4118 49.1067 0006431 339.0582 21.0398 15.37080334105344 Tevel-6 1 50999U 22002R 23341.76892670 .00026519 00000-0 73137-3 0 9993 2 50999 97.4116 49.0953 0006410 338.6348 21.4628 15.37063965105349 Tevel-1 1 51013U 22002AF 23341.76372707 .00025362 00000-0 73335-3 0 9990 2 51013 97.4116 48.3634 0005447 347.8937 12.2174 15.35598735105294 NO-116 1 51031U 22002AZ 23341.65611899 .00121374 00000-0 14730-2 0 9999 2 51031 97.4194 54.9822 0005684 305.5467 54.5260 15.60184790105648 IRIS-A 1 51044U 22002BN 23341.18333946 .00011270 00000-0 46762-3 0 9999 2 51044 97.4145 44.2818 0007211 6.0678 354.0646 15.23998641104967 Tevel-7 1 51062U 22002CG 23341.77230452 .00025088 00000-0 72472-3 0 9991 2 51062 97.4136 48.5105 0005605 346.9534 13.1564 15.35631323105298 Tevel-4 1 51063U 22002CH 23341.78705979 .00025705 00000-0 74516-3 0 9991 2 51063 97.4134 48.4839 0005507 347.3430 12.7674 15.35516279105290 Tevel-2 1 51069U 22002CP 23341.61788788 .00025385 00000-0 73211-3 0 9993 2 51069 97.4119 48.2747 0005632 348.9254 11.1865 15.35679711105279 DELFI-PQ 1 51074U 22002CU 23341.21574409 .00238612 00000-0 16427-2 0 9992 2 51074 97.4324 58.7888 0005298 316.6671 43.4176 15.73918984105776 SO-115 1 51080U 22002DA 23341.16467958 .00040166 00000-0 93789-3 0 9995 2 51080 97.4408 53.5011 0007617 6.9698 353.1654 15.42061911105410 SO-114 1 51081U 22002DB 23340.01739514 .00044185 00000-0 10171-2 0 9997 2 51081 97.4407 52.3571 0008038 12.4518 347.6926 15.42466223105245 OreSat0 1 52017U 22026K 23341.51221540 .00018565 00000-0 56973-3 0 9998 2 52017 97.5082 345.4021 0017438 183.6163 176.4956 15.33646371 96022 Planetum 1 1 52738U 22057G 23341.30462289 .00015386 00000-0 57539-3 0 9993 2 52738 97.5517 98.1421 0006774 104.7399 255.4591 15.27405920 85013 Foresail-1 1 52766U 22057AL 23341.22731069 .00010429 00000-0 43022-3 0 9995 2 52766 97.5648 98.7618 0011881 87.3535 272.9061 15.24180580 84997 SNUGLITE 2 1 52899U 22065F 23341.38505230 .00001122 00000-0 24352-3 0 9992 2 52899 98.0915 121.7403 0008479 42.4284 317.7570 14.59943503 76126 IO-117 1 53106U 22080B 23332.09968023 -.00000003 00000-0 00000-0 0 9991 2 53106 70.1436 262.7414 0008227 151.4978 208.6132 6.42557248 32288 SelfieSat 1 53951U 22057BC 23341.23601456 .00022775 00000-0 74863-3 0 9993 2 53951 97.5558 99.5124 0007431 95.5613 264.6476 15.31529681 85074 FO-118 1 54684U 22167C 23341.80805217 .00012802 00000-0 59815-3 0 9993 2 54684 97.5820 119.0978 0012688 95.4831 264.7851 15.19867409 54990 SSS-2B 1 56184U 23054G 23341.81413215 .00013399 00000-0 47623-3 0 9996 2 56184 97.3899 234.8438 0010454 131.5192 228.6947 15.29077167 36641 CIRBE 1 56188U 23054L 23341.26201477 .00022977 00000-0 74587-3 0 9995 2 56188 97.3848 234.5162 0009819 122.5958 237.6233 15.31908476 36583 INSPIRE-Sat 7 1 56211U 23054AK 23341.24924257 .00020147 00000-0 61777-3 0 9992 2 56211 97.3870 235.2139 0013827 110.9751 249.2973 15.33709808 36628 RoseyCubesat 1 1 56212U 23054AL 23341.77281890 .00022411 00000-0 66661-3 0 9993 2 56212 97.3878 235.9046 0014076 108.0364 252.2414 15.34647784 36715 SO-120 1 56992U 23084BU 23341.11697168 .00012214 00000-0 61032-3 0 9995 2 56992 97.5192 95.3810 0015800 343.4981 16.5736 15.17500666 26810 MRC-100 1 56993U 23084BV 23341.09991293 .00014808 00000-0 72892-3 0 9996 2 56993 97.5198 95.4179 0015823 342.9580 17.1120 15.17977993 26826 UmKA 1 (RS40S) 1 57172U 23091G 23341.80459304 .00003194 00000-0 22848-3 0 9997 2 57172 97.6438 30.8715 0019191 59.6801 300.6320 15.05023583 24535 CubeBel-2 (EU11S) 1 57175U 23091K 23341.78382556 .00003672 00000-0 26308-3 0 9997 2 57175 97.6423 30.7365 0017651 70.7137 289.5997 15.04889226 24524 VERONIKA 1 58261U 23174F 23341.47722950 .00009576 00000-0 53011-3 0 9998 2 58261 97.4852 53.9661 0013542 189.2184 170.8801 15.13968794 4492 HADES-D 1 58294U 23174AQ 23341.52774707 .00008541 00000-0 46180-3 0 9997 2 58294 97.4822 54.0451 0010785 174.4226 185.7128 15.14872972 4505 KAFASAT 1 58317U 23174BP 23341.51800584 .00010443 00000-0 55269-3 0 9997 2 58317 97.4798 54.0448 0012933 167.9389 192.2156 15.15550984 4504 ENSO 1 58470U 23185J 23341.81124606 .00008489 00000-0 43296-3 0 9990 2 58470 97.4555 46.2719 0013325 228.6078 131.4011 15.16913889 920 EIRSAT-1 1 58472U 23185L 23341.81145368 .00008906 00000-0 45471-3 0 9991 2 58472 97.4549 46.2694 0013109 229.8305 130.1781 15.16863289 921 /EX
